Overview Statistics Trail Chart Weather Telemetry Raw packets
 

This is the latest recevied weather packets stored in our database for station/object WA9NNN-10. If no packets are shown the sender has not sent any weather packets the latest 10 day(s).

<< 83 84 85 86 87 88 89 >>
Time Temp. Humidity Pressure Rain* Wind** Luminosity Snow
1787933011 29.44° C 51% 1021.2 hPa 0 mm - - -
1787932711 29.44° C 51% 1021.2 hPa 0 mm - - -
1787932411 28.89° C 52% 1021.2 hPa 0 mm - - -
1787932111 28.89° C 53% 1021.3 hPa 0 mm - - -
1787931811 28.33° C 55% 1021.3 hPa 0 mm - - -
1787931511 28.33° C 55% 1021.3 hPa 0 mm - - -
1787931211 28.33° C 56% 1021.4 hPa 0 mm - - -
1787930911 27.78° C 58% 1021.4 hPa 0 mm - - -
1787930311 27.22° C 61% 1021.3 hPa 0 mm - - -
1787930011 26.67° C 62% 1021.3 hPa 0 mm - - -
1787929711 26.67° C 63% 1021.3 hPa 0 mm - - -
1787929411 26.11° C 65% 1021.2 hPa 0 mm - - -
1787928811 26.11° C 66% 1021.2 hPa 0 mm - - -
1787928211 25.56° C 70% 1021.2 hPa 0 mm - - -
1787927311 24.44° C 73% 1021.4 hPa 0 mm - - -
1787927011 24.44° C 74% 1021.4 hPa 0 mm - - -
1787926712 23.89° C 75% 1021.3 hPa 0 mm - - -
1787926411 23.89° C 76% 1021.4 hPa 0 mm - - -
1787925211 22.22° C 81% 1021.3 hPa 0 mm - - -
1787923113 20.56° C 86% 1021.5 hPa 0 mm - - -
1787922511 20.56° C 87% 1021.3 hPa 0 mm - - -
1787921611 20.56° C 87% 1021.3 hPa 0 mm - - -
1787920411 20° C 87% 1021.1 hPa 0 mm - - -
1787919220 19.44° C 87% 1020.7 hPa 0 mm - - -
1787918911 19.44° C 86% 1020.7 hPa 0 mm - - -

* Rain latest hour (hover to see other rain measurements)
** Current wind speed in m/s (hover to see current wind gust speed)